This is the latest recevied weather packets stored in our database for station/object W0AKO. If no packets are shown the sender has not sent any weather packets the latest 10 day(s).
| Time | Temp. | Humidity | Pressure | Rain* | Wind** | Luminosity | Snow |
|---|---|---|---|---|---|---|---|
| 1777741703 | 21.67° C | 10% | 1021.2 hPa | 0 mm | - | 716 W/m² | - |
| 1777741399 | 21.11° C | 10% | 1021.2 hPa | 0 mm | - | 649 W/m² | - |
| 1777741095 | 20.56° C | 10% | 1021 hPa | 0 mm | - | 635 W/m² | - |
| 1777740792 | 21.11° C | 10% | 1021.3 hPa | 0 mm | - | 646 W/m² | - |
| 1777740489 | 20.56° C | 10% | 1021.3 hPa | 0 mm | - | 606 W/m² | - |
| 1777740186 | 20° C | 10% | 1021.3 hPa | 0 mm | - | 567 W/m² | - |
| 1777739882 | 20° C | 10% | 1021.2 hPa | 0 mm | - | 550 W/m² | - |
| 1777739578 | 20° C | 10% | 1021.2 hPa | 0 mm | - | 578 W/m² | - |
| 1777739276 | 20.56° C | 10% | 1021.3 hPa | 0 mm | - | 521 W/m² | - |
| 1777738973 | 20° C | 10% | 1021.4 hPa | 0 mm | - | 478 W/m² | - |
| 1777738669 | 19.44° C | 10% | 1021.6 hPa | 0 mm | - | 442 W/m² | - |
| 1777738365 | 20° C | 10% | 1021.3 hPa | 0 mm | - | 423 W/m² | - |
| 1777738058 | 19.44° C | 10% | 1021.3 hPa | 0 mm | - | 384 W/m² | - |
| 1777737757 | 18.89° C | 10% | 1021.5 hPa | 0 mm | - | 347 W/m² | - |
| 1777737455 | 18.33° C | 10% | 1021.5 hPa | 0 mm | - | 347 W/m² | - |
| 1777737152 | 18.33° C | 10% | 1021.5 hPa | 0 mm | - | 345 W/m² | - |
| 1777736848 | 17.78° C | 10% | 1021.4 hPa | 0 mm | - | 326 W/m² | - |
| 1777736235 | 17.78° C | 10% | 1021.5 hPa | 0 mm | - | 300 W/m² | - |
| 1777735932 | 18.33° C | 10% | 1021.5 hPa | 0 mm | - | 275 W/m² | - |
| 1777735629 | 18.33° C | 10% | 1021.7 hPa | 0 mm | - | 262 W/m² | - |
| 1777735326 | 18.89° C | 10% | 1021.9 hPa | 0 mm | - | 217 W/m² | - |
| 1777735024 | 17.22° C | 10% | 1021.6 hPa | 0 mm | - | 241 W/m² | - |
| 1777734721 | 18.33° C | 10% | 1021.6 hPa | 0 mm | - | 262 W/m² | - |
| 1777734418 | 17.78° C | 10% | 1021.5 hPa | 0 mm | - | 277 W/m² | - |
| 1777734114 | 17.78° C | 10% | 1021.7 hPa | 0 mm | - | 258 W/m² | - |
* Rain latest hour (hover to see other rain measurements)
** Current wind speed in m/s (hover to see current wind gust speed)